NOAA 16 DEB, 42383

Orbit data source: Space-Track

NOAA 16 DEB, 42383 is space debris in SSO originally from a launch on Thu, 21 Sep 2000 UTC launched from the Air Force Western Test Range (AFWTR). Debris objects in space refer to the collection of defunct objects orbiting the Earth. Examples of debris include non-operational satellites, rocket bodies, and fragments generated from explosions, collisions, or faulty payload assembly.

Loading next visibility...
Identifier
42383, 2000-055SB
Orbit
SSO
Country
Flag of USUS
Related business
Manufacturer
Unknown
Mission
Spacecraft
Bus & Motor
Unknown
Mass
Unknown
Launch date (UTC)
2000-09-21 (26 years ago)
Launch vehicle
Unknown
Launch site
Air Force Western Test Range (AFWTR)
Object type
Payload
Rocket body
Debris
Shape & HBR
Unknown shape, 0.1 m
Radar Cross Section
Small (<0.1 m²)

Expand to show TLE details & history
Last TLE update: 2 months ago

TLE from 2 months ago
0 NOAA 16 DEB
1 42383U 00055SB  26058.63072478  .00192328  00000-0  10801-1 0  9994
2 42383  98.8281 211.5375 0017654 315.8201  44.1615 15.12270094518168
Epoch: 2026-02-27T15:08Z
TLE epoch observation values (Epoch: 2026-02-27T15:08:14.620Z)
Latitude
-0.00004°
Longitude
-172.98784°
Altitude
523.575 km
Speed
7.606 km/s
True Right ascension
14h 06m 09s
True Declination
0° 00' 00"
Sunlit
Object was in full shadow at epoch
Visualization orbit readout
Latitude
Unknown
Longitude
Unknown
Altitude
Unknown
Speed
Unknown
Apparent Right ascension
Unknown
Apparent Declination
Unknown
Sunlit
N/A
Visualization observer readout
Local Sidereal Time
07:29:22
Azimuth
Unknown
Elevation
Unknown
Doppler factor
Unknown
Orbital elements
Apogee altitude
538.51 km
Perigee altitude
514.132 km
Semi-major axis
6,904.458 km
Eccentricity
0.00177
Inclination
98.8281°
RAAN
211.5375°
Arg. of periapsis
315.8201°
True anomaly
44.30266°
Mean anomaly
44.1615°
Eccentric anomaly
44.23206°
Mean motion
3.78311 °/min
Orbital period
95.16 mins
BSTAR
0.010801
Loading maneuver chart data...
Computing Atmospheric mass density...
Loading historical data...
Loading historical data...
Loading historical data...
Loading historical data...
Loading historical data...
Loading historical data...
Loading historical data...

Documentation

Showing up to 5 results
|